Regional Weather Roundup
Issued by NWS

Home | Current Version | Previous Version | Text Only | Print | Product List | Glossary On
Versions: 1 2 3 4 5 6 7 8 9 10 11 12 13 14 15 16 17 18 19 20 21 22 23 24 25 26 27 28 29 30 31 32 33 34 35 36 37 38 39 40 41 42 43 44 45 46 47 48 49 50
000
ASUS43 KBIS 221602
RWRND

NORTH DAKOTA REGIONAL WEATHER ROUNDUP
NATIONAL WEATHER SERVICE BISMARCK ND
1100 AM CDT TUE MAY 22 2018

NOTE: "FAIR" INDICATES FEW OR NO CLOUDS BELOW 12,000 FEET WITH NO
SIGNIFICANT WEATHER AND/OR OBSTRUCTIONS TO VISIBILITY.


NDZ001>003-009>011-017-221700-
NORTHWEST NORTH DAKOTA

CITY           SKY/WX    TMP DP  RH WIND       PRES   REMARKS
WILLISTON      CLOUDY    67  54  63 CALM      29.93R
MINOT          SUNNY     77  48  35 S8        29.93R
MINOT AFB      SUNNY     78  49  35 SW7       29.90S
$$

NDZ018>021-031>035-040>046-221700-
SOUTHWEST NORTH DAKOTA

CITY           SKY/WX    TMP DP  RH WIND       PRES   REMARKS
BISMARCK       SUNNY     72  55  55 S5        29.96S
DICKINSON      PTSUNNY   70  31  23 S9        29.96R
GARRISON         N/A     70  48  45 S6        29.95S
HETTINGER ARPT MOSUNNY   70  54  56 S6        29.98R
$$

NDZ004>008-012>016-024-026-027-054-221700-
NORTHEAST NORTH DAKOTA

CITY           SKY/WX    TMP DP  RH WIND       PRES   REMARKS
GRAND FORKS    FAIR      70  59  68 S14       29.98S
GRND FRKS AFB  FAIR      72  59  63 S7        29.99R
DEVILS LAKE    FAIR      71  58  63 SE9       29.98R
$$

NDZ022-023-025-028>030-036>039-047>053-221700-
SOUTHEAST NORTH DAKOTA

CITY           SKY/WX    TMP DP  RH WIND       PRES   REMARKS
FARGO          FAIR      63  58  83 S8        30.02S HAZE
JAMESTOWN      SUNNY     72  58  61 S13       29.98R
$$




USA.gov is the U.S. government's official web portal to all federal, state and local government web resources and services.